| time (UTC) | temp F | wind direction | speed MPH | gust MPH | rain 1hr in | rain 24hr in | rain mn in | humidity % | barometer mb |
| 20260903220039 | 97 | 353 | 2.0 | 7.0 | 0.00 | 0.00 | 0.00 | 39 | 1010.1 |
| 20260903214528 | 97 | 182 | 1.0 | 8.0 | 0.00 | 0.00 | 0.00 | 40 | 1010.2 |
| 20260903213057 | 97 | 163 | 2.0 | 6.0 | 0.00 | 0.00 | 0.00 | 40 | 1010.3 |
| 20260903211538 | 99 | 95 | 2.0 | 8.0 | 0.00 | 0.00 | 0.00 | 39 | 1010.4 |
| 20260903210020 | 99 | 149 | 2.0 | 7.0 | 0.00 | 0.00 | 0.00 | 40 | 1010.5 |
| 20260903204559 | 99 | 139 | 0.0 | 4.0 | 0.00 | 0.00 | 0.00 | 41 | 1010.6 |
| 20260903203036 | 98 | 255 | 2.0 | 10.0 | 0.00 | 0.00 | 0.00 | 39 | 1010.7 |
| 20260903201531 | 98 | 251 | 2.0 | 5.0 | 0.00 | 0.00 | 0.00 | 40 | 1010.9 |
| 20260903200100 | 98 | 200 | 2.0 | 6.0 | 0.00 | 0.00 | 0.00 | 38 | 1011.2 |
| 20260903194537 | 98 | 145 | 2.0 | 8.0 | 0.00 | 0.00 | 0.00 | 40 | 1011.2 |
| 20260903193015 | 97 | 177 | 2.0 | 9.0 | 0.00 | 0.00 | 0.00 | 41 | 1011.3 |
| 20260903191555 | 97 | 88 | 1.0 | 7.0 | 0.00 | 0.00 | 0.00 | 41 | 1011.7 |
| 20260903190036 | 96 | 196 | 4.0 | 11.0 | 0.00 | 0.00 | 0.00 | 42 | 1011.9 |
| 20260903184520 | 97 | 106 | 1.0 | 7.0 | 0.00 | 0.00 | 0.00 | 43 | 1011.9 |
| 20260903183059 | 96 | 134 | 1.0 | 5.0 | 0.00 | 0.00 | 0.00 | 44 | 1012.3 |
| 20260903183002 | 96 | 90 | 1.0 | 8.0 | 0.00 | 0.00 | 0.00 | 44 | 1012.3 |
| 20260903181537 | 94 | 267 | 4.0 | 12.0 | 0.00 | 0.00 | 0.00 | 44 | 1012.5 |
| 20260903180031 | 94 | 264 | 2.0 | 15.0 | 0.00 | 0.00 | 0.00 | 45 | 1012.7 |
| 20260903174558 | 94 | 327 | 1.0 | 10.0 | 0.00 | 0.00 | 0.00 | 47 | 1012.8 |
| 20260903173045 | 93 | 150 | 4.0 | 10.0 | 0.00 | 0.00 | 0.00 | 46 | 1013.0 |
| 20260903171528 | 93 | 176 | 3.0 | 9.0 | 0.00 | 0.00 | 0.00 | 47 | 1013.3 |
| 20260903170015 | 93 | 202 | 3.0 | 7.0 | 0.00 | 0.00 | 0.00 | 46 | 1013.3 |
| 20260903164602 | 92 | 231 | 1.0 | 8.0 | 0.00 | 0.00 | 0.00 | 50 | 1013.4 |
| 20260903164501 | 91 | 227 | 1.0 | 8.0 | 0.00 | 0.00 | 0.00 | 49 | 1013.4 |
| 20260903163035 | 92 | 142 | 1.0 | 10.0 | 0.00 | 0.00 | 0.00 | 50 | 1013.5 |
| 20260903161521 | 91 | 229 | 2.0 | 12.0 | 0.00 | 0.00 | 0.00 | 51 | 1013.5 |
| 20260903160058 | 91 | 360 | 2.0 | 8.0 | 0.00 | 0.00 | 0.00 | 51 | 1013.7 |
| 20260903154545 | 90 | 249 | 2.0 | 10.0 | 0.00 | 0.00 | 0.00 | 52 | 1013.9 |
| 20260903153017 | 89 | 269 | 2.0 | 8.0 | 0.00 | 0.00 | 0.00 | 55 | 1013.9 |
| 20260903151610 | 88 | 248 | 1.0 | 8.0 | 0.00 | 0.00 | 0.00 | 57 | 1013.9 |
| 20260903150043 | 88 | 182 | 2.0 | 8.0 | 0.00 | 0.00 | 0.00 | 57 | 1013.8 |
| 20260903144523 | 86 | 255 | 3.0 | 8.0 | 0.00 | 0.00 | 0.00 | 59 | 1013.8 |
| 20260903143106 | 85 | 184 | 3.0 | 11.0 | 0.00 | 0.00 | 0.00 | 62 | 1014.0 |
| 20260903141539 | 84 | 244 | 2.0 | 8.0 | 0.00 | 0.00 | 0.00 | 64 | 1014.1 |
| 20260903140013 | 83 | 268 | 4.0 | 9.0 | 0.00 | 0.00 | 0.00 | 65 | 1014.2 |
| 20260903134549 | 83 | 191 | 2.0 | 8.0 | 0.00 | 0.00 | 0.00 | 67 | 1014.3 |
| 20260903133028 | 82 | 269 | 2.0 | 6.0 | 0.00 | 0.00 | 0.00 | 67 | 1014.2 |
| 20260903131511 | 81 | 123 | 2.0 | 7.0 | 0.00 | 0.00 | 0.00 | 69 | 1014.2 |
| 20260903130043 | 81 | 207 | 0.0 | 3.0 | 0.00 | 0.00 | 0.00 | 70 | 1014.1 |
| 20260903124527 | 79 | 221 | 0.0 | 3.0 | 0.00 | 0.00 | 0.00 | 72 | 1014.1 |
| 20260903123051 | 78 | 281 | 0.0 | 2.0 | 0.00 | 0.00 | 0.00 | 74 | 1014.1 |
| 20260903121535 | 77 | 227 | 0.0 | 3.0 | 0.00 | 0.00 | 0.00 | 76 | 1014.0 |
| 20260903120018 | 76 | 198 | 0.0 | 2.0 | 0.00 | 0.00 | 0.00 | 77 | 1013.9 |
| 20260903114558 | 76 | 163 | 0.0 | 2.0 | 0.00 | 0.00 | 0.00 | 77 | 1013.9 |
| 20260903114503 | 76 | 163 | 0.0 | 2.0 | 0.00 | 0.00 | 0.00 | 77 | 1013.9 |
| 20260903113036 | 76 | 177 | 0.0 | 4.0 | 0.00 | 0.00 | 0.00 | 76 | 1013.7 |
| 20260903111529 | 77 | 196 | 1.0 | 4.0 | 0.00 | 0.00 | 0.00 | 75 | 1013.8 |
| 20260903110058 | 77 | 267 | 0.0 | 2.0 | 0.00 | 0.00 | 0.00 | 75 | 1013.7 |
| 20260903104554 | 76 | 155 | 0.0 | 2.0 | 0.00 | 0.00 | 0.00 | 76 | 1013.5 |
| 20260903103024 | 76 | 96 | 0.0 | 2.0 | 0.00 | 0.00 | 0.00 | 77 | 1013.4 |
| 20260903101557 | 76 | 126 | 0.0 | 2.0 | 0.00 | 0.00 | 0.00 | 76 | 1013.4 |
| 20260903100038 | 77 | 124 | 1.0 | 2.0 | 0.00 | 0.00 | 0.00 | 75 | 1013.4 |
| 20260903094507 | 77 | 191 | 0.0 | 2.0 | 0.00 | 0.00 | 0.00 | 74 | 1013.3 |
| 20260903093054 | 77 | 214 | 0.0 | 2.0 | 0.00 | 0.00 | 0.00 | 74 | 1013.2 |
| 20260903091537 | 78 | 101 | 0.0 | 3.0 | 0.00 | 0.00 | 0.00 | 73 | 1013.0 |
| 20260903090017 | 78 | 146 | 1.0 | 4.0 | 0.00 | 0.00 | 0.00 | 73 | 1013.2 |
| 20260903084558 | 78 | 119 | 0.0 | 4.0 | 0.00 | 0.00 | 0.00 | 72 | 1013.0 |
| 20260903083033 | 78 | 160 | 0.0 | 5.0 | 0.00 | 0.00 | 0.00 | 71 | 1013.0 |
| 20260903081519 | 79 | 178 | 0.0 | 4.0 | 0.00 | 0.00 | 0.00 | 71 | 1012.9 |
| 20260903080053 | 79 | 109 | 1.0 | 3.0 | 0.00 | 0.00 | 0.00 | 70 | 1012.9 |
| 20260903074542 | 79 | 141 | 1.0 | 3.0 | 0.00 | 0.00 | 0.00 | 70 | 1012.9 |
| 20260903073018 | 79 | 139 | 0.0 | 2.0 | 0.00 | 0.00 | 0.00 | 69 | 1012.9 |
| 20260903071556 | 80 | 162 | 0.0 | 4.0 | 0.00 | 0.00 | 0.00 | 67 | 1013.0 |
| 20260903070035 | 80 | 140 | 0.0 | 5.0 | 0.00 | 0.00 | 0.00 | 67 | 1013.0 |
| 20260903064513 | 80 | 146 | 1.0 | 4.0 | 0.00 | 0.00 | 0.00 | 67 | 1013.0 |
| 20260903063053 | 80 | 160 | 0.0 | 4.0 | 0.00 | 0.00 | 0.00 | 66 | 1013.0 |
| 20260903061529 | 81 | 156 | 1.0 | 5.0 | 0.00 | 0.00 | 0.00 | 64 | 1013.0 |
| 20260903060006 | 81 | 229 | 1.0 | 5.0 | 0.00 | 0.00 | 0.00 | 64 | 1013.0 |
| 20260903054551 | 82 | 198 | 0.0 | 5.0 | 0.00 | 0.00 | 0.00 | 63 | 1012.9 |
| 20260903053025 | 82 | 184 | 0.0 | 3.0 | 0.00 | 0.00 | 0.00 | 63 | 1012.9 |
| 20260903051510 | 82 | 167 | 0.0 | 5.0 | 0.00 | 0.00 | 0.00 | 62 | 1012.8 |
| 20260903050048 | 82 | 155 | 0.0 | 5.0 | 0.00 | 0.00 | 0.00 | 62 | 1012.7 |
| 20260903044513 | 82 | 140 | 1.0 | 3.0 | 0.00 | 0.00 | 0.00 | 61 | 1012.8 |
| 20260903043054 | 83 | 256 | 0.0 | 3.0 | 0.00 | 0.00 | 0.00 | 60 | 1012.8 |
| 20260903041535 | 83 | 194 | 0.0 | 3.0 | 0.00 | 0.00 | 0.00 | 59 | 1012.8 |
| 20260903040010 | 83 | 25 | 1.0 | 4.0 | 0.00 | 0.00 | 0.00 | 58 | 1012.7 |
| 20260903034548 | 84 | 176 | 1.0 | 4.0 | 0.00 | 0.00 | 0.00 | 57 | 1012.8 |
| 20260903033033 | 84 | 269 | 1.0 | 4.0 | 0.00 | 0.00 | 0.00 | 57 | 1012.7 |
| 20260903031515 | 84 | 173 | 0.0 | 5.0 | 0.00 | 0.00 | 0.00 | 55 | 1012.6 |
| 20260903030109 | 84 | 148 | 0.0 | 3.0 | 0.00 | 0.00 | 0.00 | 55 | 1012.6 |
| 20260903024541 | 85 | 153 | 1.0 | 4.0 | 0.00 | 0.00 | 0.00 | 54 | 1012.5 |
| 20260903023031 | 85 | 167 | 1.0 | 3.0 | 0.00 | 0.00 | 0.00 | 53 | 1012.4 |
| 20260903021521 | 85 | 120 | 0.0 | 4.0 | 0.00 | 0.00 | 0.00 | 53 | 1012.2 |
| 20260903020040 | 84 | 148 | 0.0 | 3.0 | 0.00 | 0.00 | 0.00 | 54 | 1012.0 |
| 20260903014546 | 84 | 170 | 0.0 | 3.0 | 0.00 | 0.00 | 0.00 | 54 | 1011.9 |
| 20260903013030 | 85 | 124 | 0.0 | 2.0 | 0.00 | 0.00 | 0.00 | 52 | 1011.7 |
| 20260903011510 | 87 | 115 | 0.0 | 2.0 | 0.00 | 0.00 | 0.00 | 49 | 1011.5 |
| 20260903010052 | 88 | 170 | 0.0 | 2.0 | 0.00 | 0.00 | 0.00 | 49 | 1011.4 |
| 20260903004532 | 89 | 161 | 0.0 | 2.0 | 0.00 | 0.00 | 0.00 | 47 | 1011.4 |
| 20260903003119 | 90 | 161 | 0.0 | 2.0 | 0.00 | 0.00 | 0.00 | 46 | 1011.3 |
| 20260903001609 | 91 | 141 | 0.0 | 2.0 | 0.00 | 0.00 | 0.00 | 44 | 1011.3 |
| 20260903001506 | 91 | 141 | 0.0 | 2.0 | 0.00 | 0.00 | 0.00 | 45 | 1011.3 |
| 20260903000045 | 92 | 156 | 0.0 | 2.0 | 0.00 | 0.00 | 0.00 | 43 | 1011.4 |
| 20260902234528 | 93 | 154 | 0.0 | 2.0 | 0.00 | 0.00 | 0.00 | 41 | 1011.4 |
| 20260902233009 | 94 | 123 | 0.0 | 3.0 | 0.00 | 0.00 | 0.00 | 41 | 1011.4 |
| 20260902231551 | 94 | 148 | 0.0 | 3.0 | 0.00 | 0.00 | 0.00 | 40 | 1011.5 |
| 20260902230029 | 95 | 164 | 1.0 | 5.0 | 0.00 | 0.00 | 0.00 | 40 | 1011.6 |
| 20260902224514 | 95 | 135 | 2.0 | 6.0 | 0.00 | 0.00 | 0.00 | 39 | 1011.7 |
| 20260902223038 | 96 | 167 | 0.0 | 6.0 | 0.00 | 0.00 | 0.00 | 39 | 1011.8 |
| 20260902221536 | 98 | 149 | 2.0 | 3.0 | 0.00 | 0.00 | 0.00 | 37 | 1011.7 |